Theta_e
327 328 328 331 329 337 338 339 336 334 335 336 336 335 335 337 336 335 335 334 332 330 328 322 319 318 316 315 313 313 317 316
324 324 326 328 331 337 338 338 338 337 338 335 335 334 334 332 332 328 328 324 319 315 313 310 310 307 303 302 302 307 311 311
320 321 324 327 325 333 334 335 335 334 334 330 329 329 323 322 320 317 313 310 307 305 302 302 301 305 301 300 301 303 310 311
317 318 319 323 324 327 331 331 331 331 330 328 326 326 316 311 308 306 303 302 301 300 300 300 300 301 301 300 300 301 310 310
315 315 315 316 318 320 320 319 320 323 317 314 313 312 310 308 306 302 300 299 299 299 299 299 299 300 300 303 301 307 306 308
313 313 312 312 311 312 313 313 312 312 312 311 310 308 307 305 302 299 299 298 298 298 299 299 299 300 300 300 301 301 306 306
313 311 310 309 308 308 307 307 307 306 305 304 306 305 305 305 305 305 304 303 299 298 298 298 298 299 299 299 300 300 300 303
312 311 309 308 307 307 306 305 304 303 302 301 302 303 304 304 304 305 304 304 301 298 298 298 298 298 298 301 299 300 300 302
312 311 309 308 307 306 305 304 302 301 300 300 300 300 304 303 303 303 302 301 298 297 297 297 297 297 298 300 298 299 299 300
313 311 309 308 307 305 304 304 303 301 300 300 300 301 301 300 297 298 298 297 297 297 297 297 297 296 297 300 298 297 298 297
313 311 309 308 307 306 305 304 304 303 301 299 299 298 297 297 298 298 297 297 296 297 298 298 296 296 296 297 297 296 297 296
313 311 309 308 307 306 306 304 304 303 302 301 299 298 297 298 297 297 298 296 296 297 297 296 296 295 295 295 296 296 298 298
314 312 309 308 307 306 306 304 303 303 302 301 300 298 299 299 297 297 296 296 296 296 296 295 295 295 294 295 295 296 297 297
314 312 310 308 307 307 305 304 303 303 302 301 299 299 300 298 296 295 295 295 295 295 295 295 294 294 294 294 294 296 297 296
315 313 310 309 307 307 306 305 304 303 302 301 300 300 300 299 297 296 296 296 296 295 295 294 293 293 293 293 295 296 296 296
315 313 311 309 308 307 306 305 303 302 301 301 300 300 300 298 296 296 295 296 296 295 294 294 293 293 293 292 293 296 296 296
315 313 312 310 308 307 306 305 303 302 301 300 300 299 299 296 295 295 294 294 294 295 296 295 293 292 292 292 292 294 295 295
315 314 312 310 308 306 306 304 303 302 301 300 299 298 298 297 296 295 295 296 294 294 294 295 292 292 292 292 292 294 295 294
315 314 312 310 308 307 306 304 302 301 300 299 298 298 298 297 297 297 297 296 295 294 293 294 294 292 292 292 292 294 294 294
Wind_Speed
13 12 13 13 13 14 15 16 16 17 16 16 15 13 12 11 10 9 8 8 5 4 6 6 6 7 9 9 9 10 10 14
13 13 12 13 11 15 15 15 16 15 15 14 12 8 7 5 6 5 5 4 3 3 4 5 5 8 9 10 9 9 10 15
14 13 12 12 9 14 14 14 14 15 14 12 10 9 8 6 4 4 3 2 2 3 3 4 3 6 6 8 9 9 8 14
17 15 14 13 12 11 14 14 14 13 13 10 9 6 6 5 3 2 1 1 2 1 1 3 4 5 7 8 8 9 9 11
19 18 16 15 14 13 13 12 12 11 9 8 9 7 8 7 5 4 3 3 3 3 3 3 4 6 7 9 11 11 11 11
22 21 19 16 15 15 15 14 13 13 13 12 10 10 8 7 6 5 5 5 5 5 6 8 9 10 10 11 11 12 11 10
24 22 21 19 17 16 16 15 14 14 13 13 12 11 10 9 8 7 6 6 6 7 8 9 9 8 8 9 10 11 11 11
29 27 25 22 20 18 17 16 15 14 13 12 13 12 12 11 9 8 7 6 5 7 7 7 7 7 8 9 10 11 12 12
30 29 26 24 22 21 19 18 17 15 15 15 14 12 10 10 9 9 8 7 6 7 7 7 8 8 9 10 10 11 11 11
34 32 29 26 25 23 22 20 19 17 17 16 15 13 12 11 11 10 9 8 7 7 7 7 8 9 10 10 10 11 11 12
36 34 32 29 26 24 23 21 19 18 17 16 15 14 13 12 11 10 10 10 9 8 8 8 8 9 10 10 10 12 12 13
40 37 34 30 27 25 24 23 22 20 18 16 16 14 14 13 12 12 11 10 9 9 8 8 8 9 10 11 11 11 12 12
39 37 34 33 31 28 27 25 23 21 19 18 17 16 15 14 13 12 12 10 10 9 8 8 8 9 9 10 10 10 10 11
39 38 37 35 32 30 29 26 24 22 20 19 18 17 15 14 14 13 12 11 10 9 8 8 8 8 9 10 9 9 9 10
42 41 39 37 35 32 30 28 26 24 22 20 19 18 16 15 14 13 12 11 10 9 8 7 7 8 8 8 7 7 7 8
44 43 41 39 37 34 31 29 28 26 24 21 20 19 17 17 16 14 13 12 10 9 8 7 6 6 7 7 7 5 7 8
45 44 43 41 39 36 33 31 30 27 24 22 21 20 19 18 17 15 14 13 11 10 8 7 4 4 6 7 7 6 6 7
46 48 46 44 42 40 37 33 30 28 26 24 23 21 20 19 18 16 15 13 11 10 8 6 3 3 5 6 7 6 5 8
45 46 46 45 43 39 38 34 32 30 27 26 24 23 21 20 18 16 16 13 11 9 8 7 3 3 4 6 6 6 5 6
Wind_Direction
163 159 162 168 199 194 206 215 215 217 221 229 228 228 236 238 250 242 245 252 260 268 295 305 312 309 314 316 317 322 338 317
159 158 156 162 189 194 203 205 202 195 207 186 212 206 207 200 218 220 222 229 262 279 311 320 346 325 329 332 336 346 350 335
165 157 159 163 171 187 199 198 196 190 184 178 183 202 194 195 182 186 198 225 279 303 313 318 329 360 350 357 3 16 7 359
168 164 162 161 166 176 191 192 190 195 200 198 193 196 147 122 117 161 173 298 283 282 336 14 28 25 12 7 13 16 25 10
175 169 166 162 160 160 163 167 178 176 148 155 145 146 147 148 138 155 163 162 118 95 71 60 49 39 37 32 28 37 34 20
182 176 171 167 163 158 160 158 160 166 167 163 152 154 152 148 152 144 119 97 91 80 70 58 50 44 36 35 31 37 31 28
187 180 175 173 167 164 165 163 167 169 169 166 165 158 150 142 135 126 121 97 69 67 59 55 52 51 45 39 38 31 33 25
187 183 180 175 172 168 165 164 166 168 169 167 165 156 151 141 133 134 116 100 85 79 73 72 68 57 51 47 38 31 28 25
192 188 183 180 174 171 167 168 169 167 168 163 157 145 144 138 144 135 126 120 110 99 90 81 67 58 56 54 34 38 27 29
193 189 185 184 178 175 174 170 168 168 168 163 161 158 154 156 150 139 132 121 110 110 96 79 66 60 58 54 39 38 33 26
192 192 187 184 179 174 171 169 166 166 166 165 161 164 160 155 148 146 143 135 127 113 99 84 71 63 59 59 45 37 34 27
192 191 188 183 177 176 173 169 169 168 165 159 162 159 158 153 150 147 145 135 127 120 107 88 74 65 59 55 48 37 33 24
192 191 186 182 178 177 176 173 171 170 167 164 162 160 159 156 153 154 146 141 134 124 110 92 77 67 60 55 50 41 33 22
191 189 188 184 181 179 176 175 173 170 167 166 163 160 160 159 160 156 150 146 134 126 116 101 86 73 62 58 47 38 28 18
192 190 189 185 182 182 177 173 174 172 169 167 165 162 163 163 160 156 153 145 138 132 126 110 92 75 63 58 54 33 24 10
192 188 190 187 181 180 178 173 175 173 170 169 167 165 163 165 161 161 159 148 146 143 133 119 95 77 61 48 56 21 15 5
192 191 189 187 181 179 177 176 174 173 171 170 168 167 167 167 167 166 164 159 155 148 137 126 106 77 55 39 32 54 2 358
194 192 188 186 182 177 177 176 173 173 172 172 171 170 169 172 169 168 166 163 158 150 144 139 139 80 49 30 22 43 355 355
196 191 189 188 182 178 176 175 173 173 172 174 173 172 172 171 170 171 170 168 160 153 154 156 168 81 35 27 13 35 357 357